Wind_Speed
25 25 21 20 21 21 20 19 19 17 15 17 17 17 17 15 17 19 19 17 20 20 20 22 24 25 27 26 25 26 29 35 37 34 32 25 21 21 19 18 15 13 10 11 11
27 25 23 21 21 20 20 20 19 18 16 15 18 17 17 16 18 17 11 16 19 21 21 21 21 21 24 27 27 29 35 37 37 34 35 30 26 21 21 22 18 15 13 12 11
29 27 24 22 21 20 18 21 19 18 15 13 15 17 16 16 18 16 15 19 21 21 21 20 20 21 23 26 29 32 37 35 37 35 35 35 33 30 28 29 19 16 15 14 14
28 27 26 24 23 22 19 20 20 18 16 12 13 14 15 16 11 12 8 13 18 21 20 20 20 22 23 25 27 31 33 35 36 36 37 37 36 35 36 34 30 23 22 20 17
27 27 26 26 24 24 20 20 20 19 16 14 12 15 17 17 18 19 16 10 7 15 19 19 21 21 23 23 25 27 29 33 35 37 38 39 41 40 42 36 36 33 29 25 22
28 28 24 24 24 25 21 21 20 20 18 15 13 14 15 17 16 18 20 19 15 13 14 17 17 19 22 23 25 27 27 28 32 37 39 41 43 41 43 39 38 38 35 31 28
26 26 24 24 26 25 24 22 21 21 20 17 14 11 12 9 15 15 17 18 17 17 14 17 20 21 22 21 23 27 29 30 33 32 33 33 47 49 43 41 42 41 40 37 33
28 30 25 25 27 25 25 23 23 22 22 21 18 16 13 11 10 12 14 16 16 16 17 20 24 25 28 26 21 15 19 23 22 25 29 29 52 36 14 31 43 41 42 42 40
45 27 28 26 26 28 25 24 24 23 23 23 22 19 19 19 19 20 18 18 18 18 18 21 24 24 25 23 23 22 23 18 18 5 14 24 36 34 35 34 35 36 44 46 45
49 35 29 28 26 27 26 25 26 24 24 26 24 19 22 13 15 20 19 21 21 21 20 21 22 25 23 22 17 17 23 22 20 15 19 28 37 36 38 38 39 39 41 48 48
43 41 37 32 28 26 28 27 26 27 27 25 8 15 17 13 19 20 16 16 16 20 21 23 27 30 27 26 27 27 23 22 22 17 24 32 40 40 40 40 44 45 43 45 48
40 43 45 34 29 30 29 32 28 23 20 22 23 23 24 22 20 19 19 21 22 23 22 26 33 29 29 26 25 29 32 34 36 34 34 42 55 48 46 45 44 46 45 46 42
32 48 32 37 30 34 32 23 26 24 21 23 22 22 21 24 27 25 22 22 21 21 22 26 24 7 19 31 31 35 37 36 37 30 32 37 60 51 46 48 44 44 45 43 43
25 44 32 39 28 38 35 24 23 19 11 13 18 24 26 27 30 24 25 22 23 22 20 22 26 29 30 28 22 33 32 30 28 21 12 9 17 35 33 31 31 40 42 43 43
24 37 35 44 37 42 32 19 18 14 2 9 17 19 19 25 16 8 15 19 22 20 20 20 18 14 22 29 30 28 22 22 17 20 25 28 17 23 16 28 32 37 34 38 40
19 38 30 40 41 38 33 29 18 11 6 8 12 15 14 17 16 10 12 15 18 22 27 29 26 28 25 20 19 22 15 16 17 19 15 28 22 42 29 39 42 34 25 32 33
18 31 29 38 35 43 31 34 19 8 8 9 14 16 18 17 14 12 14 18 17 13 23 29 31 34 32 28 25 19 22 4 8 9 8 8 21 42 12 10 20 10 21 25 27
10 19 25 34 36 42 38 31 7 11 13 9 13 16 17 13 14 16 14 20 25 25 23 13 11 17 26 33 25 23 32 10 5 4 4 16 11 20 24 27 19 24 28 23 29
10 17 29 26 39 43 38 36 16 13 27 13 17 17 17 15 10 12 18 25 23 27 17 10 12 15 25 17 22 18 31 34 20 18 7 11 24 35 31 35 29 29 30 23 32
12 13 20 16 32 37 37 25 23 12 11 17 13 12 10 11 14 12 11 5 12 21 20 13 16 19 21 17 21 32 13 8 19 4 5 10 25 25 15 15 20 22 22 26 24
7 11 22 27 35 43 38 28 25 16 11 12 13 11 11 11 15 11 7 5 8 9 13 26 19 10 13 23 30 30 38 28 12 9 4 3 10 22 20 14 21 28 23 18 26
2 9 13 28 39 40 32 31 27 19 15 13 10 12 11 11 10 15 14 9 7 8 13 22 13 21 33 32 27 27 34 38 21 9 13 18 32 10 18 17 26 17 16 18 22
1 17 10 37 30 38 30 27 28 25 21 13 11 13 11 13 10 15 13 8 11 16 6 13 13 10 9 13 27 31 40 40 42 23 29 13 8 14 23 21 21 26 9 4 14
6 11 23 43 15 38 28 29 23 21 17 14 9 10 9 14 18 8 12 8 3 5 15 18 24 26 21 28 22 19 32 39 42 30 38 41 31 31 28 32 24 29 6 5 12
9 13 32 37 33 34 33 19 23 20 16 11 9 15 14 15 15 23 24 15 17 19 18 21 33 36 45 47 43 42 34 26 43 47 25 36 35 38 38 31 20 29 6 2 10
11 5 33 18 24 32 33 29 14 19 20 15 17 8 10 20 23 7 9 19 15 11 17 26 37 33 45 43 40 41 44 37 35 36 48 46 41 33 25 18 24 12 15 4 14
16 11 29 16 37 33 34 23 21 13 14 15 11 9 11 11 11 14 15 14 12 17 23 31 32 20 25 28 10 4 23 35 33 36 32 35 20 17 13 10 8 13 9 11 13
Wind_Direction
274 272 273 277 276 275 273 268 265 260 259 264 260 256 255 256 252 248 246 243 243 244 240 241 240 239 238 239 237 235 236 242 246 248 247 252 246 236 237 234 224 226 244 259 261
277 269 269 270 272 271 273 271 264 262 261 262 262 255 251 251 257 254 237 241 242 240 235 234 236 235 236 238 236 234 237 243 248 251 255 251 252 242 232 234 225 228 238 250 263
279 273 267 267 267 267 268 271 267 266 264 263 261 254 248 251 259 261 239 238 239 239 239 236 237 236 236 236 235 239 243 246 251 256 256 256 251 249 236 222 220 233 226 243 252
276 270 268 264 265 264 263 264 266 264 263 260 258 258 250 246 244 258 241 232 237 237 235 234 236 243 245 244 243 243 247 251 255 253 257 259 257 251 244 232 227 235 234 228 238
276 272 264 261 261 262 259 261 261 261 261 264 261 258 255 249 242 258 256 241 223 221 237 243 240 246 245 246 247 252 250 252 257 258 256 256 255 255 247 239 233 239 239 236 229
268 267 264 257 257 259 257 257 259 257 257 260 261 259 257 256 245 249 255 256 245 241 237 239 241 241 246 246 246 254 253 255 255 256 260 260 259 256 246 244 235 235 235 235 234
263 257 260 250 252 252 253 253 253 254 250 252 254 254 254 235 237 243 250 256 253 249 240 231 237 237 241 252 256 256 258 257 258 259 263 267 264 256 258 253 245 235 236 233 236
256 260 249 252 252 245 247 247 250 250 246 247 247 249 253 243 242 245 248 251 251 247 243 243 243 246 251 251 251 266 275 274 270 263 263 260 262 260 265 255 248 241 238 238 238
248 253 247 238 248 255 240 241 245 245 248 246 245 250 256 253 251 246 248 250 249 245 236 237 243 246 245 244 254 254 255 258 279 250 264 254 267 269 266 254 248 243 239 240 239
241 249 241 227 236 242 243 235 237 238 240 244 248 248 246 243 243 246 245 243 243 243 238 238 242 245 239 234 234 246 247 258 261 282 264 261 262 263 260 258 253 247 240 237 238
239 235 240 222 220 234 237 229 230 236 238 246 220 231 253 252 245 237 232 237 236 234 238 245 242 239 246 251 261 263 259 255 252 258 278 270 268 264 262 257 255 247 242 239 239
239 226 229 226 212 231 244 234 235 239 243 243 244 243 246 251 247 236 241 247 245 243 240 240 250 256 256 255 249 256 261 261 269 273 274 277 274 269 263 258 253 253 248 245 241
247 225 237 210 212 220 232 243 231 235 244 248 248 242 243 246 247 246 243 246 248 248 247 249 255 263 260 252 252 253 256 263 272 284 273 281 279 278 269 266 259 252 254 246 240
266 224 230 219 223 214 216 210 229 232 248 258 246 245 236 240 253 255 248 242 244 248 248 259 257 256 258 256 247 257 262 269 272 272 260 278 287 276 266 265 258 252 251 248 244
271 222 221 229 220 213 213 207 224 212 326 231 221 221 222 215 228 239 225 228 233 240 241 250 270 270 256 260 257 255 269 268 271 263 276 262 266 286 286 273 262 255 251 251 245
263 206 205 204 217 223 193 204 204 182 251 220 195 197 189 190 199 198 204 216 233 246 254 261 267 266 266 267 262 255 260 261 255 256 250 247 224 277 268 277 277 265 266 252 242
287 232 199 208 214 203 186 183 171 192 203 217 197 190 184 189 199 205 214 218 220 223 248 258 257 262 263 264 256 247 236 251 225 211 245 254 225 247 250 269 307 293 249 250 240
256 246 199 188 205 194 184 177 170 206 196 203 191 179 189 195 210 218 216 228 228 241 255 259 280 246 255 249 244 243 232 215 244 232 266 237 241 258 278 275 273 288 277 261 228
260 240 236 180 191 186 184 181 193 195 207 187 160 184 199 205 215 216 232 239 244 232 220 225 251 246 262 260 237 231 217 244 246 252 265 240 257 270 280 281 294 280 266 256 226
255 242 222 203 191 179 193 192 193 200 176 199 194 198 202 211 205 212 238 266 240 246 233 250 268 270 263 228 222 225 233 215 210 220 235 244 261 260 283 303 293 280 272 246 237
224 203 199 228 197 185 185 187 191 195 190 181 200 206 219 209 212 219 243 259 274 275 238 234 245 262 231 228 237 221 229 232 241 237 215 252 253 269 241 280 312 294 274 248 233
193 180 224 184 165 179 191 191 197 200 204 209 212 236 247 236 227 234 245 243 271 269 246 238 246 254 260 267 262 254 249 235 217 219 230 242 256 242 245 232 317 318 266 233 225
34 196 134 174 173 185 189 191 202 211 218 235 242 240 239 224 224 244 254 252 267 257 260 235 232 273 288 264 241 239 245 234 235 237 240 226 258 297 258 272 280 333 323 241 214
148 198 178 183 179 190 193 194 201 204 204 213 243 231 236 232 230 244 237 241 238 296 245 251 246 251 253 264 259 228 238 236 224 226 238 241 256 252 262 275 284 310 321 345 193
169 187 180 197 197 192 199 203 199 207 219 242 248 224 234 236 249 250 242 242 268 291 270 253 263 270 278 278 264 256 249 244 228 228 225 252 253 259 262 283 277 307 317 354 153
206 208 194 193 192 201 204 213 224 220 236 253 243 236 243 245 247 264 288 246 266 276 260 277 272 278 283 295 290 255 245 240 241 244 241 242 258 257 274 266 290 183 329 148 137
213 199 193 205 202 207 209 206 209 224 242 257 259 272 249 252 260 253 242 227 242 280 290 281 283 287 291 314 316 279 246 240 241 244 240 226 254 270 263 332 342 288 300 135 143
Height
3064 3065 3064 3064 3064 3064 3065 3064 3064 3063 3063 3065 3067 3068 3069 3071 3070 3073 3075 3078 3080 3082 3084 3085 3088 3091 3094 3096 3098 3100 3100 3099 3101 3105 3108 3112 3115 3118 3119 3120 3121 3122 3124 3127 3128
3057 3059 3060 3059 3060 3059 3060 3061 3060 3060 3059 3060 3063 3064 3066 3066 3066 3068 3072 3074 3075 3078 3080 3082 3083 3086 3089 3091 3092 3093 3092 3094 3097 3101 3104 3108 3109 3113 3114 3115 3118 3120 3122 3123 3124
3052 3052 3054 3054 3054 3055 3054 3056 3056 3056 3056 3056 3058 3060 3062 3062 3063 3064 3068 3068 3070 3074 3076 3078 3080 3082 3083 3085 3087 3086 3086 3092 3093 3096 3098 3100 3103 3106 3108 3108 3113 3115 3116 3117 3119
3047 3047 3048 3048 3049 3050 3050 3051 3052 3052 3053 3053 3054 3057 3058 3059 3063 3060 3063 3063 3066 3069 3070 3072 3075 3077 3079 3080 3082 3081 3084 3086 3087 3091 3092 3094 3096 3097 3099 3103 3107 3109 3110 3111 3114
3042 3042 3041 3041 3043 3045 3044 3046 3047 3048 3049 3049 3050 3052 3054 3055 3057 3058 3060 3062 3063 3065 3066 3069 3071 3073 3074 3075 3076 3075 3079 3080 3081 3083 3085 3086 3086 3089 3088 3097 3101 3103 3104 3107 3108
3034 3035 3036 3036 3037 3039 3040 3041 3042 3044 3046 3046 3046 3048 3050 3052 3052 3054 3055 3057 3060 3062 3063 3065 3067 3068 3068 3070 3071 3070 3073 3073 3074 3076 3078 3079 3080 3082 3082 3089 3091 3094 3097 3100 3102
3026 3027 3029 3030 3030 3033 3035 3037 3037 3040 3041 3042 3043 3044 3045 3049 3048 3050 3052 3054 3056 3058 3060 3062 3062 3064 3064 3067 3065 3065 3066 3067 3069 3073 3073 3075 3067 3067 3078 3082 3083 3086 3089 3093 3096
3018 3020 3021 3024 3025 3026 3029 3031 3032 3034 3036 3038 3040 3041 3042 3045 3046 3048 3049 3051 3053 3055 3057 3058 3058 3060 3059 3063 3062 3063 3062 3061 3064 3066 3067 3071 3050 3065 3068 3070 3074 3080 3083 3085 3088
3008 3010 3013 3017 3020 3021 3023 3025 3027 3030 3031 3034 3036 3039 3040 3041 3042 3044 3046 3047 3048 3051 3052 3053 3054 3055 3055 3057 3059 3059 3056 3058 3060 3062 3063 3062 3053 3058 3061 3064 3065 3067 3072 3075 3079
2998 3002 3004 3008 3013 3016 3017 3019 3020 3024 3026 3028 3033 3038 3036 3035 3037 3039 3041 3043 3045 3046 3048 3049 3049 3048 3050 3054 3051 3052 3053 3054 3056 3057 3057 3054 3047 3049 3052 3055 3055 3058 3061 3064 3067
2984 2990 2997 3000 3005 3009 3011 3013 3018 3019 3020 3025 3028 3028 3030 3031 3033 3036 3038 3039 3041 3042 3044 3044 3044 3041 3045 3048 3050 3051 3051 3049 3050 3053 3051 3046 3039 3041 3043 3044 3043 3046 3050 3054 3058
2972 2979 2986 2992 2998 3001 3004 3006 3010 3014 3016 3018 3021 3024 3026 3027 3029 3031 3035 3036 3036 3038 3040 3041 3035 3040 3042 3043 3046 3046 3046 3044 3045 3049 3049 3040 3022 3030 3032 3031 3034 3035 3040 3045 3050
2961 2967 2975 2982 2990 2991 2997 3003 3007 3010 3013 3014 3016 3018 3021 3023 3023 3025 3030 3030 3032 3034 3035 3035 3034 3035 3038 3039 3040 3039 3039 3041 3042 3044 3040 3036 3006 3017 3021 3020 3024 3026 3029 3035 3039
2951 2957 2966 2973 2978 2981 2989 2995 3003 3008 3012 3009 3009 3010 3014 3016 3016 3020 3023 3028 3028 3029 3033 3030 3029 3031 3032 3033 3037 3034 3037 3038 3038 3040 3036 3035 3010 3006 3008 3009 3012 3017 3019 3024 3030
2945 2948 2958 2964 2967 2970 2987 2993 3000 3006 3011 3003 3001 3002 3005 3011 3013 3014 3016 3020 3022 3025 3028 3022 3023 3027 3026 3029 3032 3031 3034 3035 3035 3034 3033 3027 3031 2990 3000 3000 3002 3009 3012 3015 3022
2938 2940 2947 2955 2959 2966 2978 2988 2997 3007 3003 2997 2996 2998 3002 3005 3009 3012 3014 3017 3019 3021 3019 3019 3022 3021 3022 3027 3027 3029 3031 3031 3031 3031 3022 3016 3022 2980 2993 2996 2999 3005 3007 3009 3014
2932 2933 2939 2947 2954 2959 2970 2980 2994 2995 2995 2993 2993 2995 3000 3003 3007 3009 3012 3013 3015 3018 3015 3015 3015 3015 3018 3021 3024 3024 3028 3026 3023 3020 3007 3008 3008 2984 2989 2994 2997 2995 2999 3004 3008
2928 2930 2931 2943 2949 2955 2965 2977 2984 2985 2988 2988 2990 2994 2998 3001 3005 3007 3009 3010 3011 3012 3013 3013 3008 3008 3008 3009 3014 3015 3019 3018 3013 3013 3006 3004 2989 2982 2987 2991 2991 2993 2994 2997 3000
2926 2927 2927 2938 2945 2951 2963 2971 2975 2980 2983 2986 2990 2993 2996 2999 3003 3004 3004 3003 3004 3006 3009 3006 3001 3000 3001 3005 3011 3010 3009 3009 3009 3006 3003 2994 2983 2980 2983 2984 2985 2985 2987 2989 2993
2923 2926 2932 2936 2943 2951 2962 2966 2973 2978 2980 2985 2988 2992 2993 2995 2999 3000 2998 2997 2997 2998 3002 3003 3001 2998 2999 2999 2999 3000 3005 3005 3002 2999 2995 2986 2981 2978 2980 2981 2978 2976 2977 2982 2988
2922 2925 2932 2939 2943 2950 2956 2964 2971 2976 2980 2984 2986 2988 2990 2992 2994 2996 2995 2996 2994 2997 2999 3001 3001 2995 2994 2990 2991 2995 2994 2995 2996 2992 2989 2987 2974 2971 2976 2975 2973 2970 2971 2974 2979
2923 2927 2933 2937 2944 2950 2954 2961 2968 2974 2978 2981 2984 2986 2987 2990 2992 2994 2992 2993 2994 2995 2994 2994 2995 2989 2984 2986 2987 2987 2984 2984 2985 2981 2980 2978 2963 2971 2970 2970 2971 2966 2965 2967 2971
2925 2927 2931 2938 2943 2948 2955 2961 2967 2972 2976 2980 2982 2983 2985 2987 2991 2989 2989 2991 2990 2991 2992 2991 2989 2987 2979 2978 2977 2973 2971 2973 2976 2977 2970 2971 2959 2966 2968 2970 2968 2964 2962 2963 2967
2926 2931 2936 2940 2942 2949 2954 2960 2966 2971 2975 2978 2980 2981 2983 2985 2986 2986 2986 2988 2988 2989 2989 2988 2983 2979 2973 2967 2966 2962 2962 2963 2967 2966 2961 2952 2960 2963 2965 2964 2966 2962 2960 2961 2964
2928 2931 2933 2936 2943 2949 2955 2961 2966 2969 2974 2975 2976 2979 2981 2982 2983 2982 2985 2985 2985 2985 2983 2982 2973 2969 2960 2953 2954 2951 2951 2954 2955 2957 2958 2952 2958 2960 2961 2961 2964 2960 2958 2958 2962
2930 2931 2934 2939 2944 2951 2957 2960 2964 2969 2971 2973 2974 2977 2978 2978 2980 2981 2980 2981 2982 2981 2979 2976 2967 2963 2950 2947 2939 2938 2939 2943 2944 2949 2948 2955 2949 2954 2957 2960 2957 2955 2957 2959 2962
2931 2930 2936 2940 2945 2951 2953 2959 2964 2967 2970 2972 2974 2974 2975 2976 2977 2977 2978 2977 2978 2977 2976 2972 2966 2961 2947 2943 2936 2932 2931 2934 2940 2939 2945 2951 2944 2949 2950 2948 2952 2954 2958 2960 2965